"Pseudo-MPEC" for Sar2707

Created 2023 Sep 21 14:22:33 UT using Find_Orb

Click here for an explanation of pseudo-MPECs

 
 Astrometry: 
     Sar2707 KC2023 09 121Zc],%VVea:m[7qAstrometrymQg+d0]+C/(#OdP`x9C_sTo^;2xK88
     Sar2707* C2023 09 12bmjZ:AGE,1)kUlMXA7b'6%uO3jg(V@kI0Kd+Lck8l\G90YZ!A7wuK88
     Sar2707  C2023 09 12fL.1n6g4[kD`U)3ru%?WLXA+8CL.4$)!*kfx\S2=xV$S:k5pEFv#K88
     Sar2707  C2023 09 12h'o1-$E1a-@:iN',redacted;L70clickZQU`fK+3GbU(Wf65e!QK88
     Sar2707 KC2023 09 12@q^`2Mhm3;*xu\S[HY@5Z(jc90SOPTZpL08Ey+2ni0iKd$NwDcWLK88
     Sar2707 KC2023 09 12TteMnn\NdbFOTE(9Xv(heT,i()gE;mS5Xr='fy/+;0ZoU.g860WDK88
     Sar2707 KC2023 09 12gL;Z%*lQGMF]Iam]0yDk/TH-pH4Ji:?#sJoKqCirZlY')j](b'MqK88
     Sar2707 KC2023 09 12[uY,wmVf-viZF8+q5tio@IvImZ+/;X[w-:)here^-9JnimNi`4auL01
     Sar2707 KC2023 09 12bPE)SA,U80qJkHX_+lxA:hhB1(Vr$?#IVD.1Tu%KfM]K2Sq0Nex=K88
     Sar2707 1C2023 09 12.10730 01 19 10.14 +18 48 46.7    ~9C57 20.8 VXNEOCP033
     Sar2707 KC2023 09 12a0Er\#k_mpKU[YVV^[v1!wKr-7`qxJpJ,t;FT.p%Q8N-v/]a'^^RL01
     Sar2707 1C2023 09 12.10793 01 19 11.12 +18 48 42.8    ~9C57 20.7 VXNEOCP033
     Sar2707 KC2023 09 120l,G,#yVNJeVN26F=Nt$K)a20EKUqIV#03T4O0Slg'X#'v+!TV*CK88
     Sar2707 1C2023 09 12.10856 01 19 12.10 +18 48 38.9    ~9C57 20.3 VXNEOCP033
     Sar2707 KC2023 09 12n;HeK?h[BnkU#%^3Y*T:cWB9=wGs\=pPYo^7]?3,1Bcj'v#1QNb:L01
     Sar2707 KC2023 09 12AY7CSs`#$?vMW31wGqbiZRJ0V6;NXB:73]DaCHe=xlte#qfNY0.fL01
     Sar2707 KC2023 09 12Z?vJ4$ilF)*YfN@cP_(R!n/LZ^`DF%e)rFUPfor9uY4_/se8%@`iL01
     Sar2707 KC2023 09 12GtMa?sgx9i'mIT9)/DB_#VDf*cX/^x_m%F2S3dFE9%y,.cP*-aFtK88
     Sar2707 KC2023 09 12kc,T!%-`r2,^??HeuG$Gebd;mf#.fexplanationQyO]-+b:kZ'xK88

Station data:
(033) Karl Schwarzschild Observatory, Tautenburg  (N50.980137 E11.711240)
   Germany.  Observer B. Stecklum. 1.34-m f/3 Schmidt + CCD.
(K88) GINOP-KHK, Piszkéstető  (N47.917619 E19.893600)  Hungary.  Observer K.
   Sárneczky. 0.60-m Schmidt + CCD.
(L01) Višnjan Observatory, Tičan  (N45.290897 E13.749300)  Croatia.
   Observers K. Korlević, D. Pujagic, V. Dobos. Measurers D. Pujagic, K.
   Korlević. 1.0-m f/2.9 reflector + CCD.

Orbital elements:  Sar2707
   Perihelion 2023 Dec 12.04803 +/- 2.37 TT =  1:09:10 (JD 2460290.54803)
Epoch 2023 Sep 12.0 TT = JDT 2460199.5   Earth MOID: 0.0011   Ve: 0.0550
M 258.39728463 +/- 0.32             (J2000 ecliptic)             AutoNEOCP
n   1.11592432 +/- 0.0325           Peri.  305.61761 +/- 3.4
a   0.92054753 +/- 0.0179           Node   170.15051 +/- 0.09
e   0.2461495 +/- 0.0339            Incl.    4.68002 +/- 0.40
P   0.88/322.60d           H 29.23  G  0.15   U 10.4
q 0.69395518 +/- 0.0447    Q 1.14713988 +/- 0.00895
From 19 observations 2023 Sept. 12 (58.1 min); mean residual 0".33
Residuals in arcseconds: 
230912 K88  .06-  .43+    230912 L01  .32-  .18+    230912 L01  .24+  .04-    
230912 K88  .18+  .30+    230912 K88  .33+  .10-    230912 L01  .24-  .06-    
230912 K88  .16-  .42-    230912 033  .29+  .15+    230912 L01  .29+  .47-    
230912 K88  .57+  .52-    230912 L01  .13-  .43-    230912 K88  .60-  .17+    
230912 K88  .58-  .10-    230912 033  .21+  .13+    230912 K88  .71-  .31+    
230912 K88  .03+  .19+    230912 K88  .46+  .31+    
230912 K88  .52-  .03-    230912 033  .12+  .11+    

Ephemerides (geocentric):
Date (UTC) HH   RA             Dec           delta  r     elong  mag " sig PA
---- --------  ------------   ------------  ------ ------ -----  --- --------
2023 09 21 14  11 54 30.123   -21 46 56.88  .02887 .97749  22.6 31?? 243'  85
2023 09 21 15  11 54 37.857   -21 46 41.04  .02904 .97733  22.6 31?? 242'  85
2023 09 21 16  11 54 45.501   -21 46 25.23  .02920 .97716  22.5 31?? 241'  85
2023 09 21 17  11 54 53.058   -21 46 09.46  .02937 .97699  22.5 31?? 241'  85
2023 09 21 18  11 55 00.529   -21 45 53.73  .02953 .97682  22.5 31?? 240'  84
2023 09 21 19  11 55 07.914   -21 45 38.02  .02970 .97666  22.5 31?? 239'  84
2023 09 21 20  11 55 15.216   -21 45 22.35  .02986 .97649  22.5 31?? 238'  84
2023 09 21 21  11 55 22.436   -21 45 06.70  .03003 .97632  22.4 31?? 238'  84
2023 09 21 22  11 55 29.576   -21 44 51.08  .03019 .97615  22.4 31?? 237'  84
2023 09 21 23  11 55 36.635   -21 44 35.49  .03036 .97598  22.4 31?? 236'  84
2023 09 22 00  11 55 43.617   -21 44 19.93  .03052 .97582  22.4 31?? 236'  84
2023 09 22 01  11 55 50.522   -21 44 04.40  .03069 .97565  22.3 31?? 235'  84
2023 09 22 02  11 55 57.351   -21 43 48.89  .03085 .97548  22.3 31?? 234'  84
2023 09 22 03  11 56 04.105   -21 43 33.40  .03102 .97531  22.3 31?? 234'  84
2023 09 22 04  11 56 10.786   -21 43 17.94  .03118 .97514  22.3 31?? 233'  84
2023 09 22 05  11 56 17.395   -21 43 02.51  .03135 .97497  22.3 31?? 232'  84
2023 09 22 06  11 56 23.933   -21 42 47.09  .03152 .97480  22.2 31?? 232'  84
2023 09 22 07  11 56 30.401   -21 42 31.70  .03168 .97464  22.2 31?? 231'  84
2023 09 22 08  11 56 36.800   -21 42 16.33  .03185 .97447  22.2 31?? 231'  84
2023 09 22 09  11 56 43.131   -21 42 00.98  .03201 .97430  22.2 31?? 230'  84
2023 09 22 10  11 56 49.395   -21 41 45.65  .03218 .97413  22.2 31?? 229'  84
2023 09 22 11  11 56 55.594   -21 41 30.34  .03234 .97396  22.1 31?? 229'  84
2023 09 22 12  11 57 01.728   -21 41 15.05  .03251 .97379  22.1 31?? 228'  84
2023 09 22 13  11 57 07.798   -21 40 59.77  .03267 .97362  22.1 31?? 228'  84
2023 09 22 14  11 57 13.805   -21 40 44.52  .03284 .97345  22.1 31?? 227'  84
2023 09 22 15  11 57 19.750   -21 40 29.28  .03300 .97328  22.1 31?? 226'  84
2023 09 22 16  11 57 25.635   -21 40 14.05  .03317 .97312  22.0 31?? 226'  84
2023 09 22 17  11 57 31.459   -21 39 58.84  .03334 .97295  22.0 31?? 225'  84
2023 09 22 18  11 57 37.224   -21 39 43.65  .03350 .97278  22.0 31?? 225'  84
2023 09 22 19  11 57 42.931   -21 39 28.47  .03367 .97261  22.0 31?? 224'  84
2023 09 22 20  11 57 48.580   -21 39 13.30  .03383 .97244  22.0 31?? 224'  84
2023 09 22 21  11 57 54.173   -21 38 58.15  .03400 .97227  21.9 31?? 223'  84
2023 09 22 22  11 57 59.710   -21 38 43.01  .03416 .97210  21.9 32?? 223'  84
2023 09 22 23  11 58 05.192   -21 38 27.88  .03433 .97193  21.9 32?? 222'  84
2023 09 23 00  11 58 10.620   -21 38 12.76  .03450 .97176  21.9 32?? 222'  84
2023 09 23 01  11 58 15.994   -21 37 57.66  .03466 .97159  21.9 32?? 221'  84
2023 09 23 02  11 58 21.315   -21 37 42.56  .03483 .97142  21.8 32?? 221'  84
2023 09 23 03  11 58 26.585   -21 37 27.47  .03499 .97125  21.8 32?? 220'  84
2023 09 23 04  11 58 31.804   -21 37 12.39  .03516 .97108  21.8 32?? 220'  84
2023 09 23 05  11 58 36.972   -21 36 57.32  .03533 .97091  21.8 32?? 219'  84
2023 09 23 06  11 58 42.090   -21 36 42.26  .03549 .97074  21.8 32?? 219'  84
2023 09 23 07  11 58 47.159   -21 36 27.21  .03566 .97057  21.7 32?? 218'  84
2023 09 23 08  11 58 52.180   -21 36 12.16  .03583 .97040  21.7 32?? 218'  84
2023 09 23 09  11 58 57.153   -21 35 57.12  .03599 .97023  21.7 32?? 217'  84
2023 09 23 10  11 59 02.079   -21 35 42.08  .03616 .97006  21.7 32?? 217'  84
2023 09 23 11  11 59 06.958   -21 35 27.06  .03632 .96989  21.7 32?? 216'  84
2023 09 23 12  11 59 11.792   -21 35 12.03  .03649 .96972  21.6 32?? 216'  84
2023 09 23 13  11 59 16.581   -21 34 57.01  .03666 .96955  21.6 32?? 215'  84